Year,Month,Day,Hour,Minute,Value (Times are PST for temperature in C)
2013,04,16,01,13,7.20
2013,04,16,01,14,7.20
2013,04,16,01,15,7.20
2013,04,16,01,16,7.20
2013,04,16,01,17,7.20
2013,04,16,01,18,7.20
2013,04,16,01,19,7.20
2013,04,16,01,20,7.20
2013,04,16,01,21,7.20
2013,04,16,01,22,7.20
2013,04,16,01,23,7.20
2013,04,16,01,24,7.20
2013,04,16,01,25,7.20
2013,04,16,01,26,7.20
2013,04,16,01,27,7.20
2013,04,16,01,28,7.20
2013,04,16,01,29,7.20
2013,04,16,01,30,7.20
2013,04,16,01,31,7.20
2013,04,16,01,32,7.20
2013,04,16,01,33,7.20
2013,04,16,01,34,7.20
2013,04,16,01,35,7.20
2013,04,16,01,36,7.20
2013,04,16,01,37,7.20
2013,04,16,01,38,7.20
2013,04,16,01,39,7.20
2013,04,16,01,40,7.20
2013,04,16,01,41,7.20
2013,04,16,01,42,7.20
2013,04,16,01,43,7.10
2013,04,16,01,44,7.10
2013,04,16,01,45,7.10
2013,04,16,01,46,7.10
2013,04,16,01,47,7.10
2013,04,16,01,48,7.10
2013,04,16,01,49,7.10
2013,04,16,01,50,7.10
2013,04,16,01,51,7.10
2013,04,16,01,52,7.10
2013,04,16,01,53,7.10
2013,04,16,01,54,7.10
2013,04,16,01,55,7.10
2013,04,16,01,56,7.10
2013,04,16,01,57,7.10
2013,04,16,01,58,7.20
2013,04,16,01,59,7.20
2013,04,16,02,00,7.20
2013,04,16,02,01,7.20
2013,04,16,02,02,7.20
2013,04,16,02,03,7.20
2013,04,16,02,04,7.20
2013,04,16,02,05,7.20
2013,04,16,02,06,7.20
2013,04,16,02,07,7.20
2013,04,16,02,08,7.20
2013,04,16,02,09,7.20
2013,04,16,02,10,7.20
2013,04,16,02,11,7.20
2013,04,16,02,12,7.20
2013,04,16,02,13,7.30
2013,04,16,02,14,7.30
2013,04,16,02,15,7.30
2013,04,16,02,16,7.30
2013,04,16,02,17,7.30
2013,04,16,02,18,7.30
2013,04,16,02,19,7.30
2013,04,16,02,20,7.30
2013,04,16,02,21,7.30
2013,04,16,02,22,7.30
2013,04,16,02,23,7.30
2013,04,16,02,24,7.30
2013,04,16,02,25,7.30
2013,04,16,02,26,7.30
2013,04,16,02,27,7.30
2013,04,16,02,28,7.40
2013,04,16,02,29,7.40
2013,04,16,02,30,7.40
2013,04,16,02,31,7.40
2013,04,16,02,32,7.40
2013,04,16,02,33,7.40
2013,04,16,02,34,7.40
2013,04,16,02,35,7.40
2013,04,16,02,36,7.40
2013,04,16,02,37,7.40
2013,04,16,02,38,7.40
2013,04,16,02,39,7.40
2013,04,16,02,40,7.40
2013,04,16,02,41,7.40
2013,04,16,02,42,7.40
2013,04,16,02,43,7.50
2013,04,16,02,44,7.50
2013,04,16,02,45,7.50
2013,04,16,02,46,7.50
2013,04,16,02,47,7.50
2013,04,16,02,48,7.50
2013,04,16,02,49,7.50
2013,04,16,02,50,7.50
2013,04,16,02,51,7.50
2013,04,16,02,52,7.50
2013,04,16,02,53,7.50
2013,04,16,02,54,7.50
2013,04,16,02,55,7.50
2013,04,16,02,56,7.50
2013,04,16,02,57,7.50
2013,04,16,02,58,7.30
2013,04,16,02,59,7.30
2013,04,16,03,00,7.30
2013,04,16,03,01,7.30
2013,04,16,03,02,7.30
2013,04,16,03,03,7.30
2013,04,16,03,04,7.30
2013,04,16,03,05,7.30
2013,04,16,03,06,7.30
2013,04,16,03,07,7.30
2013,04,16,03,08,7.30
2013,04,16,03,09,7.30
2013,04,16,03,10,7.30
2013,04,16,03,11,7.30
2013,04,16,03,12,7.30
2013,04,16,03,13,7.20
2013,04,16,03,14,7.20
2013,04,16,03,15,7.20
2013,04,16,03,16,7.20
2013,04,16,03,17,7.20
2013,04,16,03,18,7.20
2013,04,16,03,19,7.20
2013,04,16,03,20,7.20
2013,04,16,03,21,7.20
2013,04,16,03,22,7.20
2013,04,16,03,23,7.20
2013,04,16,03,24,7.20
2013,04,16,03,25,7.20
2013,04,16,03,26,7.20
2013,04,16,03,27,7.20
2013,04,16,03,28,6.80
2013,04,16,03,29,6.80
2013,04,16,03,30,6.80
2013,04,16,03,31,6.80
2013,04,16,03,32,6.80
2013,04,16,03,33,6.80
2013,04,16,03,34,6.80
2013,04,16,03,35,6.80
2013,04,16,03,36,6.80
2013,04,16,03,37,6.80
2013,04,16,03,38,6.80
2013,04,16,03,39,6.80
2013,04,16,03,40,6.80
2013,04,16,03,41,6.80
2013,04,16,03,42,6.80
2013,04,16,03,43,6.70
2013,04,16,03,44,6.70
2013,04,16,03,45,6.70
2013,04,16,03,46,6.70
2013,04,16,03,47,6.70
2013,04,16,03,48,6.70
2013,04,16,03,49,6.70
2013,04,16,03,50,6.70
2013,04,16,03,51,6.70
2013,04,16,03,52,6.70
2013,04,16,03,53,6.70
2013,04,16,03,54,6.70
2013,04,16,03,55,6.70
2013,04,16,03,56,6.70
2013,04,16,03,57,6.70
2013,04,16,03,58,6.70
2013,04,16,03,59,6.70
2013,04,16,04,00,6.70
2013,04,16,04,01,6.70
2013,04,16,04,02,6.70
2013,04,16,04,03,6.70
2013,04,16,04,04,6.70
2013,04,16,04,05,6.70
2013,04,16,04,06,6.70
2013,04,16,04,07,6.70
2013,04,16,04,08,6.70
2013,04,16,04,09,6.70
2013,04,16,04,10,6.70
2013,04,16,04,11,6.70
2013,04,16,04,12,6.70
2013,04,16,04,13,6.50
2013,04,16,04,14,6.50
2013,04,16,04,15,6.50
2013,04,16,04,16,6.50
2013,04,16,04,17,6.50
2013,04,16,04,18,6.50
2013,04,16,04,19,6.50
2013,04,16,04,20,6.50
2013,04,16,04,21,6.50
2013,04,16,04,22,6.50
2013,04,16,04,23,6.50
2013,04,16,04,24,6.50
2013,04,16,04,25,6.50
2013,04,16,04,26,6.50
2013,04,16,04,27,6.50
2013,04,16,04,28,6.40
2013,04,16,04,29,6.40
2013,04,16,04,30,6.40
2013,04,16,04,31,6.40
2013,04,16,04,32,6.40
2013,04,16,04,33,6.40
2013,04,16,04,34,6.40
2013,04,16,04,35,6.40
2013,04,16,04,36,6.40
2013,04,16,04,37,6.40
2013,04,16,04,38,6.40
2013,04,16,04,39,6.40
2013,04,16,04,40,6.40
2013,04,16,04,41,6.40
2013,04,16,04,42,6.40
2013,04,16,04,43,6.20
2013,04,16,04,44,6.20
2013,04,16,04,45,6.20
2013,04,16,04,46,6.20
2013,04,16,04,47,6.20
2013,04,16,04,48,6.20
2013,04,16,04,49,6.20
2013,04,16,04,50,6.20
2013,04,16,04,51,6.20
2013,04,16,04,52,6.20
2013,04,16,04,53,6.20
2013,04,16,04,54,6.20
2013,04,16,04,55,6.20
2013,04,16,04,56,6.20
2013,04,16,04,57,6.20
2013,04,16,04,58,6.00
2013,04,16,04,59,6.00
2013,04,16,05,00,6.00
2013,04,16,05,01,6.00
2013,04,16,05,02,6.00
2013,04,16,05,03,6.00
2013,04,16,05,04,6.00
2013,04,16,05,05,6.00
2013,04,16,05,06,6.00
2013,04,16,05,07,6.00
2013,04,16,05,08,6.00
2013,04,16,05,09,6.00
2013,04,16,05,10,6.00
2013,04,16,05,11,6.00
2013,04,16,05,12,6.00
2013,04,16,05,13,5.80
2013,04,16,05,14,5.80
2013,04,16,05,15,5.80
2013,04,16,05,16,5.80
2013,04,16,05,17,5.80
2013,04,16,05,18,5.80
2013,04,16,05,19,5.80
2013,04,16,05,20,5.80
2013,04,16,05,21,5.80
2013,04,16,05,22,5.80
2013,04,16,05,23,5.80
2013,04,16,05,24,5.80
2013,04,16,05,25,5.80
2013,04,16,05,26,5.80
2013,04,16,05,27,5.80
2013,04,16,05,28,5.90
2013,04,16,05,29,5.90
2013,04,16,05,30,5.90
2013,04,16,05,31,5.90
2013,04,16,05,32,5.90
2013,04,16,05,33,5.90
2013,04,16,05,34,5.90
2013,04,16,05,35,5.90
2013,04,16,05,36,5.90
2013,04,16,05,37,5.90
2013,04,16,05,38,5.90
2013,04,16,05,39,5.90
2013,04,16,05,40,5.90
2013,04,16,05,41,5.90
2013,04,16,05,42,5.90
2013,04,16,05,43,5.70
2013,04,16,05,44,5.70
2013,04,16,05,45,5.70
2013,04,16,05,46,5.70
2013,04,16,05,47,5.70
2013,04,16,05,48,5.70
2013,04,16,05,49,5.70
2013,04,16,05,50,5.70
2013,04,16,05,51,5.70
2013,04,16,05,52,5.70
2013,04,16,05,53,5.70
2013,04,16,05,54,5.70
2013,04,16,05,55,5.70
2013,04,16,05,56,5.70
2013,04,16,05,57,5.70
2013,04,16,05,58,5.80
2013,04,16,05,59,5.80
2013,04,16,06,00,5.80
2013,04,16,06,01,5.80
2013,04,16,06,02,5.80
2013,04,16,06,03,5.80
2013,04,16,06,04,5.80
2013,04,16,06,05,5.80
2013,04,16,06,06,5.80
2013,04,16,06,07,5.80
2013,04,16,06,08,5.80
2013,04,16,06,09,5.80
2013,04,16,06,10,5.80
2013,04,16,06,11,5.80
2013,04,16,06,12,5.80
2013,04,16,06,13,5.80
2013,04,16,06,14,5.80
2013,04,16,06,15,5.80
2013,04,16,06,16,5.80
2013,04,16,06,17,5.80
2013,04,16,06,18,5.80
2013,04,16,06,19,5.80
2013,04,16,06,20,5.80
2013,04,16,06,21,5.80
2013,04,16,06,22,5.80
2013,04,16,06,23,5.80
2013,04,16,06,24,5.80
2013,04,16,06,25,5.80
2013,04,16,06,26,5.80
2013,04,16,06,27,5.80
2013,04,16,06,28,6.00
2013,04,16,06,29,6.00
2013,04,16,06,30,6.00
2013,04,16,06,31,6.00
2013,04,16,06,32,6.00
2013,04,16,06,33,6.00
2013,04,16,06,34,6.00
2013,04,16,06,35,6.00
2013,04,16,06,36,6.00
2013,04,16,06,37,6.00
2013,04,16,06,38,6.00
2013,04,16,06,39,6.00
2013,04,16,06,40,6.00
2013,04,16,06,41,6.00
2013,04,16,06,42,6.00
2013,04,16,06,43,6.20
2013,04,16,06,44,6.20
2013,04,16,06,45,6.20
2013,04,16,06,46,6.20
2013,04,16,06,47,6.20
2013,04,16,06,48,6.20
2013,04,16,06,49,6.20
2013,04,16,06,50,6.20
2013,04,16,06,51,6.20
2013,04,16,06,52,6.20
2013,04,16,06,53,6.20
2013,04,16,06,54,6.20
2013,04,16,06,55,6.20
2013,04,16,06,56,6.20
2013,04,16,06,57,6.20
2013,04,16,06,58,6.30
2013,04,16,06,59,6.30
2013,04,16,07,00,6.30
2013,04,16,07,01,6.30
2013,04,16,07,02,6.30
2013,04,16,07,03,6.30
2013,04,16,07,04,6.30
2013,04,16,07,05,6.30
2013,04,16,07,06,6.30
2013,04,16,07,07,6.30
2013,04,16,07,08,6.30
2013,04,16,07,09,6.30
2013,04,16,07,10,6.30
2013,04,16,07,11,6.30
2013,04,16,07,12,6.30
2013,04,16,07,13,6.30
2013,04,16,07,14,6.30
2013,04,16,07,15,6.30
2013,04,16,07,16,6.30
2013,04,16,07,17,6.30
2013,04,16,07,18,6.30
2013,04,16,07,19,6.30
2013,04,16,07,20,6.30
2013,04,16,07,21,6.30
2013,04,16,07,22,6.30
2013,04,16,07,23,6.30
2013,04,16,07,24,6.30
2013,04,16,07,25,6.30
2013,04,16,07,26,6.30
2013,04,16,07,27,6.30
2013,04,16,07,28,6.60
2013,04,16,07,29,6.60
2013,04,16,07,30,6.60
2013,04,16,07,31,6.60
2013,04,16,07,32,6.60
2013,04,16,07,33,6.60
2013,04,16,07,34,6.60
2013,04,16,07,35,6.60
2013,04,16,07,36,6.60
2013,04,16,07,37,6.60
2013,04,16,07,38,6.60
2013,04,16,07,39,6.60
2013,04,16,07,40,6.60
2013,04,16,07,41,6.60
2013,04,16,07,42,6.60
2013,04,16,07,43,6.70
2013,04,16,07,44,6.70
2013,04,16,07,45,6.70
2013,04,16,07,46,6.70
2013,04,16,07,47,6.70
2013,04,16,07,48,6.70
2013,04,16,07,49,6.70
2013,04,16,07,50,6.70
2013,04,16,07,51,6.70
2013,04,16,07,52,6.70
2013,04,16,07,53,6.70
2013,04,16,07,54,6.70
2013,04,16,07,55,6.70
2013,04,16,07,56,6.70
2013,04,16,07,57,6.70
2013,04,16,07,58,6.80
2013,04,16,07,59,6.80
2013,04,16,08,00,6.80
2013,04,16,08,01,6.80
2013,04,16,08,02,6.80
2013,04,16,08,03,6.80
2013,04,16,08,04,6.80
2013,04,16,08,05,6.80
2013,04,16,08,06,6.80
2013,04,16,08,07,6.80
2013,04,16,08,08,6.80
2013,04,16,08,09,6.80
2013,04,16,08,10,6.80
2013,04,16,08,11,6.80
2013,04,16,08,12,6.80
2013,04,16,08,13,7.20
2013,04,16,08,14,7.20
2013,04,16,08,15,7.20
2013,04,16,08,16,7.20
2013,04,16,08,17,7.20
2013,04,16,08,18,7.20
2013,04,16,08,19,7.20
2013,04,16,08,20,7.20
2013,04,16,08,21,7.20
2013,04,16,08,22,7.20
2013,04,16,08,23,7.20
2013,04,16,08,24,7.20
2013,04,16,08,25,7.20
2013,04,16,08,26,7.20
2013,04,16,08,27,7.20
2013,04,16,08,28,7.30
2013,04,16,08,29,7.30
2013,04,16,08,30,7.30
2013,04,16,08,31,7.30
2013,04,16,08,32,7.30
2013,04,16,08,33,7.30
2013,04,16,08,34,7.30
2013,04,16,08,35,7.30
2013,04,16,08,36,7.30
2013,04,16,08,37,7.30
2013,04,16,08,38,7.30
2013,04,16,08,39,7.30
2013,04,16,08,40,7.30
2013,04,16,08,41,7.30
2013,04,16,08,42,7.30
2013,04,16,08,43,7.50
2013,04,16,08,44,7.50
2013,04,16,08,45,7.50
2013,04,16,08,46,7.50
2013,04,16,08,47,7.50
2013,04,16,08,48,7.50
2013,04,16,08,49,7.50
2013,04,16,08,50,7.50
2013,04,16,08,51,7.50
2013,04,16,08,52,7.50
2013,04,16,08,53,7.50
2013,04,16,08,54,7.50
2013,04,16,08,55,7.50
2013,04,16,08,56,7.50
2013,04,16,08,57,7.50
2013,04,16,08,58,7.90
2013,04,16,08,59,7.90
2013,04,16,09,00,7.90
2013,04,16,09,01,7.90
2013,04,16,09,02,7.90
2013,04,16,09,03,7.90
2013,04,16,09,04,7.90
2013,04,16,09,05,7.90
2013,04,16,09,06,7.90
2013,04,16,09,07,7.90
2013,04,16,09,08,7.90
2013,04,16,09,09,7.90
2013,04,16,09,10,7.90
2013,04,16,09,11,7.90
2013,04,16,09,12,7.90
2013,04,16,09,13,8.60
2013,04,16,09,14,8.60
2013,04,16,09,15,8.60
2013,04,16,09,16,8.60
2013,04,16,09,17,8.60
2013,04,16,09,18,8.60
2013,04,16,09,19,8.60
2013,04,16,09,20,8.60
2013,04,16,09,21,8.60
2013,04,16,09,22,8.60
2013,04,16,09,23,8.60
2013,04,16,09,24,8.60
2013,04,16,09,25,8.60
2013,04,16,09,26,8.60
2013,04,16,09,27,8.60
2013,04,16,09,28,8.90
2013,04,16,09,29,8.90
2013,04,16,09,30,8.90
2013,04,16,09,31,8.90
2013,04,16,09,32,8.90
2013,04,16,09,33,8.90
2013,04,16,09,34,8.90
2013,04,16,09,35,8.90
2013,04,16,09,36,8.90
2013,04,16,09,37,8.90
2013,04,16,09,38,8.90
2013,04,16,09,39,8.90
2013,04,16,09,40,8.90
2013,04,16,09,41,8.90
2013,04,16,09,42,8.90
2013,04,16,09,43,9.00
2013,04,16,09,44,9.00
2013,04,16,09,45,9.00
2013,04,16,09,46,9.00
2013,04,16,09,47,9.00
2013,04,16,09,48,9.00
2013,04,16,09,49,9.00
2013,04,16,09,50,9.00
2013,04,16,09,51,9.00
2013,04,16,09,52,9.00
2013,04,16,09,53,9.00
2013,04,16,09,54,9.00
2013,04,16,09,55,9.00
2013,04,16,09,56,9.00
2013,04,16,09,57,9.00
2013,04,16,09,58,9.30
2013,04,16,09,59,9.30
2013,04,16,10,00,9.30
2013,04,16,10,01,9.30
2013,04,16,10,02,9.30
2013,04,16,10,03,9.30
2013,04,16,10,04,9.30
2013,04,16,10,05,9.30
2013,04,16,10,06,9.30
2013,04,16,10,07,9.30
2013,04,16,10,08,9.30
2013,04,16,10,09,9.30
2013,04,16,10,10,9.30
2013,04,16,10,11,9.30
2013,04,16,10,12,9.30
2013,04,16,10,13,9.50
2013,04,16,10,14,9.50
2013,04,16,10,15,9.50
2013,04,16,10,16,9.50
2013,04,16,10,17,9.50
2013,04,16,10,18,9.50
2013,04,16,10,19,9.50
2013,04,16,10,20,9.50
2013,04,16,10,21,9.50
2013,04,16,10,22,9.50
2013,04,16,10,23,9.50
2013,04,16,10,24,9.50
2013,04,16,10,25,9.50
2013,04,16,10,26,9.50
2013,04,16,10,27,9.50
2013,04,16,10,28,9.30
2013,04,16,10,29,9.30
2013,04,16,10,30,9.30
2013,04,16,10,31,9.30
2013,04,16,10,32,9.30
2013,04,16,10,33,9.30
2013,04,16,10,34,9.30
2013,04,16,10,35,9.30
2013,04,16,10,36,9.30
2013,04,16,10,37,9.30
2013,04,16,10,38,9.30
2013,04,16,10,39,9.30
2013,04,16,10,40,9.30
2013,04,16,10,41,9.30
2013,04,16,10,42,9.30
2013,04,16,10,43,9.60
2013,04,16,10,44,9.60
2013,04,16,10,45,9.60
2013,04,16,10,46,9.60
2013,04,16,10,47,9.60
2013,04,16,10,48,9.60
2013,04,16,10,49,9.60
2013,04,16,10,50,9.60
2013,04,16,10,51,9.60
2013,04,16,10,52,9.60
2013,04,16,10,53,9.60
2013,04,16,10,54,9.60
2013,04,16,10,55,9.60
2013,04,16,10,56,9.60
2013,04,16,10,57,9.60
2013,04,16,10,58,9.80
2013,04,16,10,59,9.80
2013,04,16,11,00,9.80
2013,04,16,11,01,9.80
2013,04,16,11,02,9.80
2013,04,16,11,03,9.80
2013,04,16,11,04,9.80
2013,04,16,11,05,9.80
2013,04,16,11,06,9.80
2013,04,16,11,07,9.80
2013,04,16,11,08,9.80
2013,04,16,11,09,9.80
2013,04,16,11,10,9.80
2013,04,16,11,11,9.80
2013,04,16,11,12,9.80
2013,04,16,11,13,9.80
2013,04,16,11,14,9.80
2013,04,16,11,15,9.80
2013,04,16,11,16,9.80
2013,04,16,11,17,9.80
2013,04,16,11,18,9.80
2013,04,16,11,19,9.80
2013,04,16,11,20,9.80
2013,04,16,11,21,9.80
2013,04,16,11,22,9.80
2013,04,16,11,23,9.80
2013,04,16,11,24,9.80
2013,04,16,11,25,9.80
2013,04,16,11,26,9.80
2013,04,16,11,27,9.80
2013,04,16,11,28,10.30
2013,04,16,11,29,10.30
2013,04,16,11,30,10.30
2013,04,16,11,31,10.30
2013,04,16,11,32,10.30
2013,04,16,11,33,10.30
2013,04,16,11,34,10.30
2013,04,16,11,35,10.30
2013,04,16,11,36,10.30
2013,04,16,11,37,10.30
2013,04,16,11,38,10.30
2013,04,16,11,39,10.30
2013,04,16,11,40,10.30
2013,04,16,11,41,10.30
2013,04,16,11,42,10.30
2013,04,16,11,43,10.20
2013,04,16,11,44,10.20
2013,04,16,11,45,10.20
2013,04,16,11,46,10.20
2013,04,16,11,47,10.20
2013,04,16,11,48,10.20
2013,04,16,11,49,10.20
2013,04,16,11,50,10.20
2013,04,16,11,51,10.20
2013,04,16,11,52,10.20
2013,04,16,11,53,10.20
2013,04,16,11,54,10.20
2013,04,16,11,55,10.20
2013,04,16,11,56,10.20
2013,04,16,11,57,10.20
2013,04,16,11,58,10.30
2013,04,16,11,59,10.30
2013,04,16,12,00,10.30
2013,04,16,12,01,10.30
2013,04,16,12,02,10.30
2013,04,16,12,03,10.30
2013,04,16,12,04,10.30
2013,04,16,12,05,10.30
2013,04,16,12,06,10.30
2013,04,16,12,07,10.30
2013,04,16,12,08,10.30
2013,04,16,12,09,10.30
2013,04,16,12,10,10.30
2013,04,16,12,11,10.30
2013,04,16,12,12,10.30
2013,04,16,12,13,10.70
2013,04,16,12,14,10.70
2013,04,16,12,15,10.70
2013,04,16,12,16,10.70
2013,04,16,12,17,10.70
2013,04,16,12,18,10.70
2013,04,16,12,19,10.70
2013,04,16,12,20,10.70
2013,04,16,12,21,10.70
2013,04,16,12,22,10.70
2013,04,16,12,23,10.70
2013,04,16,12,24,10.70
2013,04,16,12,25,10.70
2013,04,16,12,26,10.70
2013,04,16,12,27,10.70
2013,04,16,12,28,10.40
2013,04,16,12,29,10.40
2013,04,16,12,30,10.40
2013,04,16,12,31,10.40
2013,04,16,12,32,10.40
2013,04,16,12,33,10.40
2013,04,16,12,34,10.40
2013,04,16,12,35,10.40
2013,04,16,12,36,10.40
2013,04,16,12,37,10.40
2013,04,16,12,38,10.40
2013,04,16,12,39,10.40
2013,04,16,12,40,10.40
2013,04,16,12,41,10.40
2013,04,16,12,42,10.40
2013,04,16,12,43,10.60
2013,04,16,12,44,10.60
2013,04,16,12,45,10.60
2013,04,16,12,46,10.60
2013,04,16,12,47,10.60
2013,04,16,12,48,10.60
2013,04,16,12,49,10.60
2013,04,16,12,50,10.60
2013,04,16,12,51,10.60
2013,04,16,12,52,10.60
2013,04,16,12,53,10.60
2013,04,16,12,54,10.60
2013,04,16,12,55,10.60
2013,04,16,12,56,10.60
2013,04,16,12,57,10.60
2013,04,16,12,58,10.70
2013,04,16,12,59,10.70
2013,04,16,13,00,10.70
2013,04,16,13,01,10.70
2013,04,16,13,02,10.70
2013,04,16,13,03,10.70
2013,04,16,13,04,10.70
2013,04,16,13,05,10.70
2013,04,16,13,06,10.70
2013,04,16,13,07,10.70
2013,04,16,13,08,10.70
2013,04,16,13,09,10.70
2013,04,16,13,10,10.70
2013,04,16,13,11,10.70
2013,04,16,13,12,10.70
2013,04,16,13,13,10.80
2013,04,16,13,14,10.80
2013,04,16,13,15,10.80
2013,04,16,13,16,10.80
2013,04,16,13,17,10.80
2013,04,16,13,18,10.80
2013,04,16,13,19,10.80
2013,04,16,13,20,10.80
2013,04,16,13,21,10.80
2013,04,16,13,22,10.80
2013,04,16,13,23,10.80
2013,04,16,13,24,10.80
2013,04,16,13,25,10.80
2013,04,16,13,26,10.80
2013,04,16,13,27,10.80
2013,04,16,13,28,10.60
2013,04,16,13,29,10.60
2013,04,16,13,30,10.60
2013,04,16,13,31,10.60
2013,04,16,13,32,10.60
2013,04,16,13,33,10.60
2013,04,16,13,34,10.60
2013,04,16,13,35,10.60
2013,04,16,13,36,10.60
2013,04,16,13,37,10.60
2013,04,16,13,38,10.60
2013,04,16,13,39,10.60
2013,04,16,13,40,10.60
2013,04,16,13,41,10.60
2013,04,16,13,42,10.60
2013,04,16,13,43,10.60
2013,04,16,13,44,10.60
2013,04,16,13,45,10.60
2013,04,16,13,46,10.60
2013,04,16,13,47,10.60
2013,04,16,13,48,10.60
2013,04,16,13,49,10.60
2013,04,16,13,50,10.60
2013,04,16,13,51,10.60
2013,04,16,13,52,10.60
2013,04,16,13,53,10.60
2013,04,16,13,54,10.60
2013,04,16,13,55,10.60
2013,04,16,13,56,10.60
2013,04,16,13,57,10.60
2013,04,16,13,58,11.20
2013,04,16,13,59,11.20
2013,04,16,14,00,11.20
2013,04,16,14,01,11.20
2013,04,16,14,02,11.20
2013,04,16,14,03,11.20
2013,04,16,14,04,11.20
2013,04,16,14,05,11.20
2013,04,16,14,06,11.20
2013,04,16,14,07,11.20
2013,04,16,14,08,11.20
2013,04,16,14,09,11.20
2013,04,16,14,10,11.20
2013,04,16,14,11,11.20
2013,04,16,14,12,11.20
2013,04,16,14,13,11.30
2013,04,16,14,14,11.30
2013,04,16,14,15,11.30
2013,04,16,14,16,11.30
2013,04,16,14,17,11.30
2013,04,16,14,18,11.30
2013,04,16,14,19,11.30
2013,04,16,14,20,11.30
2013,04,16,14,21,11.30
2013,04,16,14,22,11.30
2013,04,16,14,23,11.30
2013,04,16,14,24,11.30
2013,04,16,14,25,11.30
2013,04,16,14,26,11.30
2013,04,16,14,27,11.30
2013,04,16,14,28,11.30
2013,04,16,14,29,11.30
2013,04,16,14,30,11.30
2013,04,16,14,31,11.30
2013,04,16,14,32,11.30
2013,04,16,14,33,11.30
2013,04,16,14,34,11.30
2013,04,16,14,35,11.30
2013,04,16,14,36,11.30
2013,04,16,14,37,11.30
2013,04,16,14,38,11.30
2013,04,16,14,39,11.30
2013,04,16,14,40,11.30
2013,04,16,14,41,11.30
2013,04,16,14,42,11.30
2013,04,16,14,43,11.40
2013,04,16,14,44,11.40
2013,04,16,14,45,11.40
2013,04,16,14,46,11.40
2013,04,16,14,47,11.40
2013,04,16,14,48,11.40
2013,04,16,14,49,11.40
2013,04,16,14,50,11.40
2013,04,16,14,51,11.40
2013,04,16,14,52,11.40
2013,04,16,14,53,11.40
2013,04,16,14,54,11.40
2013,04,16,14,55,11.40
2013,04,16,14,56,11.40
2013,04,16,14,57,11.40
2013,04,16,14,58,10.90
2013,04,16,14,59,10.90
2013,04,16,15,00,10.90
2013,04,16,15,01,10.90
2013,04,16,15,02,10.90
2013,04,16,15,03,10.90
2013,04,16,15,04,10.90
2013,04,16,15,05,10.90
2013,04,16,15,06,10.90
2013,04,16,15,07,10.90
2013,04,16,15,08,10.90
2013,04,16,15,09,10.90
2013,04,16,15,10,10.90
2013,04,16,15,11,10.90
2013,04,16,15,12,10.90
2013,04,16,15,13,11.40
2013,04,16,15,14,11.40
2013,04,16,15,15,11.40
2013,04,16,15,16,11.40
2013,04,16,15,17,11.40
2013,04,16,15,18,11.40
2013,04,16,15,19,11.40
2013,04,16,15,20,11.40
2013,04,16,15,21,11.40
2013,04,16,15,22,11.40
2013,04,16,15,23,11.40
2013,04,16,15,24,11.40
2013,04,16,15,25,11.40
2013,04,16,15,26,11.40
2013,04,16,15,27,11.40
2013,04,16,15,28,11.20
2013,04,16,15,29,11.20
2013,04,16,15,30,11.20
2013,04,16,15,31,11.20
2013,04,16,15,32,11.20
2013,04,16,15,33,11.20
2013,04,16,15,34,11.20
2013,04,16,15,35,11.20
2013,04,16,15,36,11.20
2013,04,16,15,37,11.20
2013,04,16,15,38,11.20
2013,04,16,15,39,11.20
2013,04,16,15,40,11.20
2013,04,16,15,41,11.20
2013,04,16,15,42,11.20
2013,04,16,15,43,11.30
2013,04,16,15,44,11.30
2013,04,16,15,45,11.30
2013,04,16,15,46,11.30
2013,04,16,15,47,11.30
2013,04,16,15,48,11.30
2013,04,16,15,49,11.30
2013,04,16,15,50,11.30
2013,04,16,15,51,11.30
2013,04,16,15,52,11.30
2013,04,16,15,53,11.30
2013,04,16,15,54,11.30
2013,04,16,15,55,11.30
2013,04,16,15,56,11.30
2013,04,16,15,57,11.30
2013,04,16,15,58,11.20
2013,04,16,15,59,11.20
2013,04,16,16,00,11.20
2013,04,16,16,01,11.20
2013,04,16,16,02,11.20
2013,04,16,16,03,11.20
2013,04,16,16,04,11.20
2013,04,16,16,05,11.20
2013,04,16,16,06,11.20
2013,04,16,16,07,11.20
2013,04,16,16,08,11.20
2013,04,16,16,09,11.20
2013,04,16,16,10,11.20
2013,04,16,16,11,11.20
2013,04,16,16,12,11.20
2013,04,16,16,13,11.20
2013,04,16,16,14,11.20
2013,04,16,16,15,11.20
2013,04,16,16,16,11.20
2013,04,16,16,17,11.20
2013,04,16,16,18,11.20
2013,04,16,16,19,11.20
2013,04,16,16,20,11.20
2013,04,16,16,21,11.20
2013,04,16,16,22,11.20
2013,04,16,16,23,11.20
2013,04,16,16,24,11.20
2013,04,16,16,25,11.20
2013,04,16,16,26,11.20
2013,04,16,16,27,11.20
2013,04,16,16,28,11.30
2013,04,16,16,29,11.30
2013,04,16,16,30,11.30
2013,04,16,16,31,11.30
2013,04,16,16,32,11.30
2013,04,16,16,33,11.30
2013,04,16,16,34,11.30
2013,04,16,16,35,11.30
2013,04,16,16,36,11.30
2013,04,16,16,37,11.30
2013,04,16,16,38,11.30
2013,04,16,16,39,11.30
2013,04,16,16,40,11.30
2013,04,16,16,41,11.30
2013,04,16,16,42,11.30
2013,04,16,16,43,11.10
2013,04,16,16,44,11.10
2013,04,16,16,45,11.10
2013,04,16,16,46,11.10
2013,04,16,16,47,11.10
2013,04,16,16,48,11.10
2013,04,16,16,49,11.10
2013,04,16,16,50,11.10
2013,04,16,16,51,11.10
2013,04,16,16,52,11.10
2013,04,16,16,53,11.10
2013,04,16,16,54,11.10
2013,04,16,16,55,11.10
2013,04,16,16,56,11.10
2013,04,16,16,57,11.10
2013,04,16,16,58,11.30
2013,04,16,16,59,11.30
2013,04,16,17,00,11.30
2013,04,16,17,01,11.30
2013,04,16,17,02,11.30
2013,04,16,17,03,11.30
2013,04,16,17,04,11.30
2013,04,16,17,05,11.30
2013,04,16,17,06,11.30
2013,04,16,17,07,11.30
2013,04,16,17,08,11.30
2013,04,16,17,09,11.30
2013,04,16,17,10,11.30
2013,04,16,17,11,11.30
2013,04,16,17,12,11.30
2013,04,16,17,13,11.10
2013,04,16,17,14,11.10
2013,04,16,17,15,11.10
2013,04,16,17,16,11.10
2013,04,16,17,17,11.10
2013,04,16,17,18,11.10
2013,04,16,17,19,11.10
2013,04,16,17,20,11.10
2013,04,16,17,21,11.10
2013,04,16,17,22,11.10
2013,04,16,17,23,11.10
2013,04,16,17,24,11.10
2013,04,16,17,25,11.10
2013,04,16,17,26,11.10
2013,04,16,17,27,11.10
2013,04,16,17,28,11.30
2013,04,16,17,29,11.30
2013,04,16,17,30,11.30
2013,04,16,17,31,11.30
2013,04,16,17,32,11.30
2013,04,16,17,33,11.30
2013,04,16,17,34,11.30
2013,04,16,17,35,11.30
2013,04,16,17,36,11.30
2013,04,16,17,37,11.30
2013,04,16,17,38,11.30
2013,04,16,17,39,11.30
2013,04,16,17,40,11.30
2013,04,16,17,41,11.30
2013,04,16,17,42,11.30
2013,04,16,17,43,11.20
2013,04,16,17,44,11.20
2013,04,16,17,45,11.20
2013,04,16,17,46,11.20
2013,04,16,17,47,11.20
2013,04,16,17,48,11.20
2013,04,16,17,49,11.20
2013,04,16,17,50,11.20
2013,04,16,17,51,11.20
2013,04,16,17,52,11.20
2013,04,16,17,53,11.20
2013,04,16,17,54,11.20
2013,04,16,17,55,11.20
2013,04,16,17,56,11.20
2013,04,16,17,57,11.20
2013,04,16,17,58,11.40
2013,04,16,17,59,11.40
2013,04,16,18,00,11.40
2013,04,16,18,01,11.40
2013,04,16,18,02,11.40
2013,04,16,18,03,11.40
2013,04,16,18,04,11.40
2013,04,16,18,05,11.40
2013,04,16,18,06,11.40
2013,04,16,18,07,11.40
2013,04,16,18,08,11.40
2013,04,16,18,09,11.40
2013,04,16,18,10,11.40
2013,04,16,18,11,11.40
2013,04,16,18,12,11.40
2013,04,16,18,13,11.60
2013,04,16,18,14,11.60
2013,04,16,18,15,11.60
2013,04,16,18,16,11.60
2013,04,16,18,17,11.60
2013,04,16,18,18,11.60
2013,04,16,18,19,11.60
2013,04,16,18,20,11.60
2013,04,16,18,21,11.60
2013,04,16,18,22,11.60
2013,04,16,18,23,11.60
2013,04,16,18,24,11.60
2013,04,16,18,25,11.60
2013,04,16,18,26,11.60
2013,04,16,18,27,11.60
2013,04,16,18,28,11.40
2013,04,16,18,29,11.40
2013,04,16,18,30,11.40
2013,04,16,18,31,11.40
2013,04,16,18,32,11.40
2013,04,16,18,33,11.40
2013,04,16,18,34,11.40
2013,04,16,18,35,11.40
2013,04,16,18,36,11.40
2013,04,16,18,37,11.40
2013,04,16,18,38,11.40
2013,04,16,18,39,11.40
2013,04,16,18,40,11.40
2013,04,16,18,41,11.40
2013,04,16,18,42,11.40
2013,04,16,18,43,11.40
2013,04,16,18,44,11.40
2013,04,16,18,45,11.40
2013,04,16,18,46,11.40
2013,04,16,18,47,11.40
2013,04,16,18,48,11.40
2013,04,16,18,49,11.40
2013,04,16,18,50,11.40
2013,04,16,18,51,11.40
2013,04,16,18,52,11.40
2013,04,16,18,53,11.40
2013,04,16,18,54,11.40
2013,04,16,18,55,11.40
2013,04,16,18,56,11.40
2013,04,16,18,57,11.40
2013,04,16,18,58,11.60
2013,04,16,18,59,11.60